sat.trackr.live / text

‹ back to catalog

STARLINK-5639

NORAD 55365 · 2023-013AL

PAYLOAD ACTIVE UNKNOWN

§ Identity

Operator
Country
US
Launch date
2023-01-26
Launch site
AFETR
Launch vehicle
Mass (kg)
RCS (m²)

Purposes: comms

External: N2YO · Heavens-Above · Gunter

§ Orbital elements

Epoch: 2026-09-20T03:14:36.012192Z

Period
94.27 min
Inclination
43.0014°
Eccentricity
0.0001151
Mean motion
15.27574614 rev/d
Perigee alt
482.3 km
Apogee alt
483.9 km
Semi-major
6,861.2 km
B*
5.7452e-6
RAAN
303.1926°
Arg perigee
268.9062°
Mean anomaly
91.1658°
Rev number
20,120

§ Raw data

STARLINK-56391 55365U 23013AL  26263.13513903 -.00000104  00000+0  57452-5 0  99902 55365  43.0014 303.1926 0001151 268.9062  91.1658 15.27574614201200

JSON: /api/v1/satellites/55365 · /tle

For live sub-satellite position, see the globe view (requires WebGL).

§ Visibility from observer

Set your observer location to see the next 7 days of passes ≥ 10°. The values pass through the URL so the page stays shareable.

No JS? Fill the form by hand. The geolocation button needs JavaScript.